Simultaneous Nadir Overpasses (SNOs) Predictions

Prediction of SNOs between GOES-15 and METOP-C Satellite Orbit:

Table of predicted SNOs for the next 14.0 days since TLE Epoch: 11/13/2022
Index Date Time (GOES-15) GOES-15 Lat,Lon METOP-C Lat,Lon Distance(km) Time Diff (sec)
1 11/13/2022 05:46:08 0.23,-128.32 1.08,-124.46 439.77 80
2 11/14/2022 18:05:00 -0.22,-128.30 -0.03,-129.02 82.18 80
3 11/15/2022 17:47:02 -0.22,-128.29 -1.18,-124.03 485.47 80
4 11/17/2022 06:06:01 0.21,-128.26 0.12,-128.61 40.67 80
5 11/19/2022 18:04:15 -0.21,-128.21 -0.22,-128.18 3.12 80
6 11/22/2022 05:59:55 0.20,-128.16 0.28,-127.77 43.82 80
7 11/23/2022 18:18:47 -0.19,-128.10 0.78,-132.32 481.76 80
8 11/24/2022 18:00:48 -0.20,-128.08 -0.38,-127.34 84.57 80
9 11/26/2022 06:19:47 0.18,-128.04 -0.70,-131.91 441.67 80
